Location: Anan
(43.3550°N, 0.8171°E)
Time: 20:11:11
(UTC+00:00)

Terra - Pass Details

Date: 14 May 2026
Orbit: 689 x 690 km, 97.9° (Epoch: 8 June)

Event Time Altitude Azimuth Distance (km) Brightness Sun altitude
Exits shadow 20:45:12 - 187° (S) 2,356 4.2 -14.4°
Reaches altitude 10° 20:45:46 10° 189° (S) 2,134 4.0 -14.5°
Maximum altitude 20:50:13 44° 261° (W) 957 2.8 -15.0°
Drops below altitude 10° 20:54:44 10° 334° (NNW) 2,151 5.5 -15.6°
Sets 20:57:05 0° 341° (NNW) 3,072 6.4 -15.9°
